Location: Ottawa
(45.4170°N, 75.7000°W)
Time: 20:16:49
(UTC-05:00)

Amateur Radio Satellites - All Passes

Search period start: 08 February 2016 19:46
Search period end: 09 February 2016 19:46
Location: Ottawa, 45.4170°N, 75.7000°W

Satellite Date Start Highest point End Downlink Frequencies (MHz)
Time Altitude Azimuth
AAUSAT CUBESAT 2 08 Feb 19:53:51 19:57:58 74° 75° (ENE) 20:02:08 437.432
BRITE-PL 08 Feb 19:58:59 19:59:09 10° 276° (W) 19:59:17 437.365/2234.400
AO-85 08 Feb 20:03:09 20:07:58 40° 244° (WSW) 20:12:24 145.980
ZACube-1 08 Feb 20:03:57 20:07:42 32° 69° (ENE) 20:11:25 437.345
Cosmos 2499 08 Feb 20:09:12 20:17:11 41° 69° (ENE) 20:24:33 435.465 / 435.565
CANX-2 08 Feb 20:11:52 20:15:34 30° 265° (W) 20:19:18 2200.000
FUNcube-1 08 Feb 20:13:35 20:17:29 38° 70° (ENE) 20:21:21 145.935
CINEMA 3 08 Feb 20:22:38 20:26:50 33° 263° (W) 20:30:53 145.822/145.860
ISS 08 Feb 20:26:44 20:29:40 30° 11° (N) 20:32:35 145.825
HUMSAT D 08 Feb 20:35:23 20:38:31 22° 66° (ENE) 20:41:39 437.325/437.525
CUBEBUG 2 08 Feb 20:38:42 20:42:59 56° 260° (W) 20:47:09 437.445
AIST 2 08 Feb 20:40:43 20:44:24 30° 316° (NW) 20:48:07 435.215
UWE-3 08 Feb 20:42:22 20:46:38 70° 258° (WSW) 20:50:50 435.000/436.395/437.385
Oscar 11 08 Feb 20:48:15 20:52:30 67° 258° (WSW) 20:56:49 145.826/435.025
PCSat 08 Feb 20:48:27 20:53:35 43° 246° (WSW) 20:58:40 145.827
STRAND 1 08 Feb 20:49:39 20:53:25 21° 299° (WNW) 20:57:10 437.568
HO-68 08 Feb 20:58:41 21:04:09 23° 269° (W) 21:09:40 435.675
COMPASS 1 08 Feb 21:00:51 21:03:44 18° 268° (W) 21:06:39 437.405
DX 1 08 Feb 21:00:51 21:02:09 11° 58° (ENE) 21:03:26 434.975-435.025
SEEDS 08 Feb 21:15:04 21:15:44 10° 272° (W) 21:16:23 437.485
PRISM 08 Feb 21:18:11 21:21:18 20° 296° (WNW) 21:24:23 437.425
DELFI C3 08 Feb 21:18:54 21:22:47 54° 260° (W) 21:26:43 145.870
RS-15 08 Feb 21:28:05 21:39:55 61° 245° (WSW) 21:51:53 29.354- 29.394
AAUSAT CUBESAT 2 08 Feb 21:33:16 21:34:00 10° 272° (W) 21:34:44 437.432
AIST 1 08 Feb 21:39:56 21:44:19 70° 81° (E) 21:48:37
ZACube-1 08 Feb 21:40:36 21:44:03 24° 266° (W) 21:47:28 437.345
GONETS M04 08 Feb 21:43:52 21:51:15 32° 278° (W) 21:58:39
UNISAT 6 08 Feb 21:45:12 21:48:40 23° 94° (E) 21:52:08 437.425
VELOX 1 08 Feb 21:47:41 21:51:31 29° 66° (ENE) 21:55:21 145.980
50 SAT 08 Feb 21:48:02 21:51:15 29° 69° (ENE) 21:54:30 437.505
FUNcube-1 08 Feb 21:50:46 21:53:53 20° 267° (W) 21:57:00 145.935
Cosmos 2499 08 Feb 22:02:26 22:10:26 48° 272° (W) 22:17:53 435.465 / 435.565
ISS 08 Feb 22:03:08 22:06:24 85° 207° (SSW) 22:09:38 145.825
AISAT 08 Feb 22:03:39 22:07:52 42° 70° (ENE) 22:12:06 437.250
HUMSAT D 08 Feb 22:10:13 22:13:58 35° 263° (W) 22:17:45 437.325/437.525
POLYITAN 1 08 Feb 22:15:26 22:16:55 12° 89° (E) 22:18:22 437.675
QB50P2 08 Feb 22:15:57 22:17:39 12° 89° (E) 22:19:22 145.880/145.840
ESTCUBE 1 08 Feb 22:19:59 22:24:28 65° 73° (ENE) 22:28:59 437.505/2401.250
UKube-1 08 Feb 22:23:41 22:27:57 60° 72° (ENE) 22:32:14 .
CUBEBUG 1 08 Feb 22:27:00 22:31:21 58° 73° (ENE) 22:35:44 437.445
ANTELSAT 08 Feb 22:29:41 22:34:00 66° 102° (ESE) 22:38:22 437.575/2403.000
DX 1 08 Feb 22:33:15 22:37:39 89° 75° (ENE) 22:42:04 434.975-435.025
SPROUT 08 Feb 22:35:57 22:39:35 27° 67° (ENE) 22:43:11 437.525
TIGRISAT 08 Feb 22:37:01 22:41:21 75° 103° (ESE) 22:45:43 435.000
POPSAT HIP 1 08 Feb 22:44:41 22:48:04 23° 94° (E) 22:51:27 437.405
NANOSAT C BR1 08 Feb 22:50:06 22:53:38 26° 95° (E) 22:57:10 145.865
TISAT 1 08 Feb 22:51:06 22:53:42 16° 62° (ENE) 22:56:17 437.305
DUCHIFAT 1 08 Feb 22:52:07 22:55:39 26° 95° (E) 22:59:10 145.980
QB50P1 08 Feb 22:57:10 23:00:58 32° 97° (E) 23:04:43 145.935-145.965
AIST 1 08 Feb 23:19:52 23:21:16 11° 278° (W) 23:22:40
UNISAT 6 08 Feb 23:21:31 23:25:29 36° 291° (WNW) 23:29:30 437.425
50 SAT 08 Feb 23:22:27 23:25:19 21° 266° (W) 23:28:13 437.505
VELOX 1 08 Feb 23:23:56 23:27:55 31° 264° (W) 23:31:56 145.980
ISS 08 Feb 23:40:49 23:42:23 13° 227° (SW) 23:43:57 145.825
AISAT 08 Feb 23:41:08 23:44:32 21° 267° (W) 23:47:57 437.250
RS-15 08 Feb 23:44:21 23:49:42 14° 267° (W) 23:55:06 29.354- 29.394
POLYITAN 1 08 Feb 23:49:00 23:53:12 69° 287° (WNW) 23:57:23 437.675
QB50P2 08 Feb 23:49:44 23:53:56 66° 286° (WNW) 23:58:06 145.880/145.840
SWISSCUBE 08 Feb 23:51:16 23:54:18 17° 60° (ENE) 23:57:20 437.505
BUGSAT 1 08 Feb 23:58:50 00:02:54 74° 103° (ESE) 00:06:54 437.445
ESTCUBE 1 08 Feb 23:59:21 00:01:44 14° 271° (W) 00:04:08 437.505/2401.250
UKube-1 09 Feb 00:02:05 00:04:24 14° 270° (W) 00:06:44 .
CUBEBUG 1 09 Feb 00:05:24 00:08:01 15° 270° (W) 00:10:39 437.445
ANTELSAT 09 Feb 00:07:54 00:10:14 14° 299° (WNW) 00:12:35 437.575/2403.000
SPROUT 09 Feb 00:11:38 00:15:28 31° 264° (W) 00:19:19 437.525
TIGRISAT 09 Feb 00:15:35 00:17:29 13° 300° (WNW) 00:19:24 435.000
POPSAT HIP 1 09 Feb 00:20:09 00:23:56 33° 291° (WNW) 00:27:43 437.405
TISAT 1 09 Feb 00:24:48 00:28:57 56° 259° (W) 00:33:08 437.305
NANOSAT C BR1 09 Feb 00:25:43 00:29:24 30° 292° (WNW) 00:33:04 145.865
ITUPSAT 1 09 Feb 00:26:03 00:30:13 30° 66° (ENE) 00:34:23 437.325
DUCHIFAT 1 09 Feb 00:27:43 00:31:22 30° 292° (WNW) 00:35:01 145.980
CUSAT 1 09 Feb 00:28:47 00:34:50 24° 82° (E) 00:40:55 437.405
QB50P1 09 Feb 00:33:11 00:36:38 25° 294° (WNW) 00:40:05 145.935-145.965
BEESAT 09 Feb 00:35:04 00:39:26 37° 68° (ENE) 00:43:49 436.000
Cosmos 2491 09 Feb 00:36:35 00:43:13 23° 60° (ENE) 00:49:49 435.465 / 435.565
JAS-2 09 Feb 00:39:12 00:42:51 17° 87° (E) 00:46:17 435.910
DANDE 09 Feb 00:52:20 00:58:00 22° 79° (E) 01:03:59 436.750
Oscar 19 09 Feb 00:55:20 00:59:57 32° 96° (E) 01:04:31 437.125/150
KKS-1 09 Feb 01:00:49 01:01:41 10° 57° (ENE) 01:02:32 437.445
BEESAT 3 09 Feb 01:12:41 01:16:19 33° 46° (NE) 01:19:54 437.485
Gurwin Techsat 1B 09 Feb 01:17:18 01:21:16 21° 92° (E) 01:25:12 435.225
SWISSCUBE 09 Feb 01:26:52 01:31:35 66° 257° (WSW) 01:36:22 437.505
YUBILEINY 09 Feb 01:32:55 01:38:02 17° 74° (ENE) 01:43:09 435.215
BEESAT 2 09 Feb 01:34:45 01:38:28 35° 47° (NE) 01:42:09 435.950
BUGSAT 1 09 Feb 01:36:17 01:37:43 12° 300° (WNW) 01:39:07 437.445
AIST 2 09 Feb 01:44:48 01:45:42 11° 28° (NNE) 01:46:37 435.215
ITAMSAT 1 09 Feb 02:01:42 02:06:09 27° 94° (E) 02:10:33 435.822/435.867
ITUPSAT 1 09 Feb 02:03:41 02:07:59 33° 263° (W) 02:12:20 437.325
CUSAT 1 09 Feb 02:08:19 02:16:20 83° 282° (WNW) 02:24:24 437.405
PHONESAT 2.4 09 Feb 02:11:03 02:13:46 24° 165° (SSE) 02:16:29 2401.200-2431.200
BEESAT 09 Feb 02:13:18 02:17:19 27° 265° (W) 02:21:21 436.000
MOZHAYETS 4 09 Feb 02:19:22 02:23:01 24° 65° (ENE) 02:26:42
STARS 09 Feb 02:19:33 02:23:31 33° 68° (ENE) 02:27:28 437.465
JAS-2 09 Feb 02:22:53 02:28:42 68° 288° (WNW) 02:33:57 435.910
DANDE 09 Feb 02:32:04 02:39:50 90° 97° (E) 02:48:25 436.750
Cosmos 2491 09 Feb 02:32:29 02:41:17 87° 263° (W) 02:50:04 435.465 / 435.565
KKS-1 09 Feb 02:33:02 02:37:30 81° 74° (ENE) 02:41:59 437.445
Oscar 19 09 Feb 02:34:38 02:39:16 35° 294° (WNW) 02:43:52 437.125/150
BEESAT 3 09 Feb 02:50:35 02:54:00 28° 244° (WSW) 02:57:23 437.485
Gurwin Techsat 1B 09 Feb 02:56:21 03:01:34 57° 290° (WNW) 03:06:46 435.225
BEESAT 2 09 Feb 03:12:54 03:16:15 26° 245° (WSW) 03:19:32 435.950
AO-7 09 Feb 03:19:33 03:27:19 41° 98° (E) 03:34:59 29.400- 29.500
AIST 2 09 Feb 03:21:13 03:25:15 47° 50° (NE) 03:29:12 435.215
YUBILEINY 09 Feb 03:24:33 03:33:19 80° 95° (E) 03:42:10 435.215
ITAMSAT 1 09 Feb 03:40:49 03:45:45 43° 292° (WNW) 03:50:41 435.822/435.867
Cosmos 2504 09 Feb 03:45:12 03:51:59 27° 79° (E) 03:58:55 435.465 / 435.565
PHONESAT 2.4 09 Feb 03:47:37 03:50:38 34° 182° (S) 03:53:38 2401.200-2431.200
HORYU 2 09 Feb 03:49:34 03:53:15 25° 95° (E) 03:56:55 437.375
CUSAT 1 09 Feb 03:53:48 03:59:45 22° 301° (WNW) 04:05:38 437.405
MOZHAYETS 4 09 Feb 03:55:43 03:59:59 39° 262° (W) 04:04:19
STARS 09 Feb 03:56:14 03:59:55 26° 265° (W) 04:03:38 437.465
JAS-2 09 Feb 04:10:40 04:12:31 12° 311° (NW) 04:14:19 435.910
KKS-1 09 Feb 04:13:30 04:14:39 11° 272° (W) 04:15:48 437.445
DANDE 09 Feb 04:17:39 04:24:00 25° 301° (WNW) 04:30:38 436.750
M-CUBED/EXP-1 PRIME 09 Feb 04:27:27 04:30:47 67° 108° (ESE) 04:34:17 437.505
Cosmos 2491 09 Feb 04:31:12 04:36:48 19° 284° (WNW) 04:42:24 435.465 / 435.565
CUBESAT XI-V 09 Feb 04:33:05 04:37:40 57° 72° (ENE) 04:42:18 437.345
AUBIESAT-1 09 Feb 04:38:09 04:41:33 75° 108° (ESE) 04:45:07 437.475
STRAND 1 09 Feb 04:51:03 04:54:09 16° 58° (ENE) 04:57:14 437.568
AIST 2 09 Feb 05:00:23 05:03:26 20° 247° (WSW) 05:06:27 435.215
CUTE-I 09 Feb 05:12:11 05:15:29 16° 89° (E) 05:18:46 437.470
AO-7 09 Feb 05:12:17 05:20:16 52° 298° (WNW) 05:28:11 29.400- 29.500
SO-50 09 Feb 05:18:02 05:22:54 69° 123° (ESE) 05:27:51 436.795
YUBILEINY 09 Feb 05:24:10 05:31:10 26° 298° (WNW) 05:38:15 435.215
PHONESAT 2.4 09 Feb 05:24:55 05:27:28 21° 198° (SSW) 05:30:00 2401.200-2431.200
Cubesat XI-IV 09 Feb 05:25:02 05:29:05 21° 92° (E) 05:33:06 437.490
HORYU 2 09 Feb 05:25:51 05:29:53 35° 292° (WNW) 05:33:56 437.375
Cosmos 2504 09 Feb 05:35:52 05:44:28 75° 281° (W) 05:53:26 435.465 / 435.565
LilacSat-2 09 Feb 05:52:22 05:55:38 27° 95° (E) 05:58:54 437.200
CUBESAT XI-V 09 Feb 06:12:22 06:15:25 17° 270° (W) 06:18:31 437.345
BRITE-PL 09 Feb 06:17:54 06:22:16 33° 94° (E) 06:26:19 437.365/2234.400
STRAND 1 09 Feb 06:27:34 06:32:41 78° 256° (WSW) 06:37:52 437.568
PRISM 09 Feb 06:33:43 06:37:37 39° 70° (ENE) 06:41:33 437.425
HO-68 09 Feb 06:37:48 06:39:31 11° 84° (E) 06:41:13 435.675
CUTE-I 09 Feb 06:50:42 06:56:05 74° 287° (WNW) 07:01:27 437.470
GONETS M04 09 Feb 06:59:44 07:03:14 13° 71° (ENE) 07:06:44
SO-50 09 Feb 06:59:50 07:03:52 24° 322° (NW) 07:07:55 436.795
Cubesat XI-IV 09 Feb 07:04:14 07:09:31 57° 290° (WNW) 07:14:46 437.490
AO-7 09 Feb 07:07:08 07:11:09 15° 321° (NW) 07:15:11 29.400- 29.500
CUTE 1.7 + AOD 2 09 Feb 07:11:04 07:12:47 12° 88° (E) 07:14:31 437.475
DOVE 4 09 Feb 07:14:11 07:17:59 30° 95° (E) 07:21:39 437.250
SEEDS 09 Feb 07:19:27 07:20:41 11° 88° (E) 07:21:57 437.485
LilacSat-2 09 Feb 07:26:51 07:29:53 23° 292° (WNW) 07:32:54 437.200
GOMX 1 09 Feb 07:28:15 07:32:48 85° 107° (ESE) 07:37:03 467.674
Cosmos 2504 09 Feb 07:33:49 07:39:35 19° 304° (NW) 07:45:28 435.465 / 435.565
AAUSAT CUBESAT 2 09 Feb 07:37:12 07:37:37 10° 87° (E) 07:38:03 437.432
CANX-2 09 Feb 07:54:09 07:58:11 38° 97° (E) 08:02:13 2200.000
BRITE-PL 09 Feb 07:56:31 08:00:40 29° 295° (WNW) 08:04:34 437.365/2234.400
O/OREOS (USA 219) 09 Feb 08:03:32 08:07:56 61° 110° (ESE) 08:12:23 437.305
PRISM 09 Feb 08:10:03 08:13:07 20° 267° (W) 08:16:13 437.425
CINEMA 3 09 Feb 08:14:39 08:18:40 45° 99° (E) 08:22:40 145.822/145.860
HO-68 09 Feb 08:21:27 08:28:38 64° 103° (ESE) 08:35:45 435.675
CUBEBUG 2 09 Feb 08:27:37 08:31:00 23° 94° (E) 08:34:24 437.445
UWE-3 09 Feb 08:30:27 08:33:25 19° 92° (E) 08:36:26 435.000/436.395/437.385
CUTE-I 09 Feb 08:33:05 08:35:13 12° 306° (NW) 08:37:21 437.470
Oscar 11 09 Feb 08:34:02 08:37:09 19° 92° (E) 08:40:16 145.826/435.025
COMPASS 1 09 Feb 08:39:59 08:44:11 61° 100° (E) 08:48:22 437.405
CUTE 1.7 + AOD 2 09 Feb 08:44:50 08:49:06 69° 286° (WNW) 08:53:22 437.475
UNISAT 6 09 Feb 08:46:19 08:49:56 27° 67° (ENE) 08:53:31 437.425
Cosmos 2499 09 Feb 08:48:01 08:55:22 32° 82° (E) 09:02:50 435.465 / 435.565
GONETS M04 09 Feb 08:49:40 08:58:14 67° 93° (E) 09:06:51
DOVE 4 09 Feb 08:52:03 08:55:37 26° 294° (WNW) 08:59:06 437.250
SEEDS 09 Feb 08:52:40 08:56:55 74° 285° (WNW) 09:01:10 437.485
DELFI C3 09 Feb 08:55:40 08:58:20 17° 92° (E) 09:00:59 145.870
GOMX 1 09 Feb 09:08:35 09:10:08 12° 303° (WNW) 09:11:39 467.674
AAUSAT CUBESAT 2 09 Feb 09:09:27 09:13:41 79° 283° (WNW) 09:17:52 437.432
POLYITAN 1 09 Feb 09:10:26 09:12:26 13° 60° (ENE) 09:14:26 437.675
QB50P2 09 Feb 09:10:58 09:13:06 14° 61° (ENE) 09:15:15 145.880/145.840
ZACube-1 09 Feb 09:25:35 09:29:41 50° 99° (E) 09:33:50 437.345
CANX-2 09 Feb 09:30:32 09:33:50 22° 295° (WNW) 09:37:08 2200.000
ANTELSAT 09 Feb 09:30:33 09:34:52 75° 74° (ENE) 09:39:09 437.575/2403.000
FUNcube-1 09 Feb 09:35:02 09:39:11 61° 101° (E) 09:43:25 145.935
TIGRISAT 09 Feb 09:37:42 09:42:01 85° 76° (ENE) 09:46:19 435.000
POPSAT HIP 1 09 Feb 09:39:24 09:42:50 24° 66° (ENE) 09:46:16 437.405
NANOSAT C BR1 09 Feb 09:44:27 09:48:00 27° 67° (ENE) 09:51:32 145.865
O/OREOS (USA 219) 09 Feb 09:44:39 09:47:46 18° 310° (NW) 09:50:55 437.305
DUCHIFAT 1 09 Feb 09:46:14 09:49:46 26° 67° (ENE) 09:53:18 145.980
RS-15 09 Feb 09:46:52 09:53:47 19° 96° (E) 10:00:52 29.354- 29.394
PCSat 09 Feb 09:50:45 09:54:15 18° 105° (ESE) 09:57:46 145.827
HUMSAT D 09 Feb 09:51:18 09:54:58 29° 96° (E) 09:58:38 437.325/437.525
QB50P1 09 Feb 09:51:42 09:55:28 32° 69° (ENE) 09:59:16 145.935-145.965
CINEMA 3 09 Feb 09:52:43 09:55:31 18° 296° (WNW) 09:58:18 145.822/145.860
CUBEBUG 2 09 Feb 10:03:57 10:07:41 33° 291° (WNW) 10:11:29 437.445
UWE-3 09 Feb 10:06:09 10:10:06 42° 289° (WNW) 10:14:06 435.000/436.395/437.385
Oscar 11 09 Feb 10:09:22 10:13:30 44° 289° (WNW) 10:17:38 145.826/435.025
HO-68 09 Feb 10:09:50 10:15:52 30° 303° (WNW) 10:21:54 435.675
AIST 1 09 Feb 10:11:26 10:15:28 36° 91° (E) 10:19:31
ESTCUBE 1 09 Feb 10:12:28 10:14:10 12° 88° (E) 10:15:51 437.505/2401.250
COMPASS 1 09 Feb 10:16:55 10:19:18 15° 298° (WNW) 10:21:40 437.405
AO-85 09 Feb 10:18:11 10:23:18 47° 118° (ESE) 10:28:34 145.980
DX 1 09 Feb 10:21:06 10:23:07 13° 90° (E) 10:25:07 434.975-435.025
UNISAT 6 09 Feb 10:22:44 10:26:34 31° 263° (W) 10:30:25 437.425
DELFI C3 09 Feb 10:29:37 10:33:28 44° 288° (WNW) 10:37:19 145.870
Cosmos 2499 09 Feb 10:39:13 10:47:54 65° 283° (WNW) 10:56:46 435.465 / 435.565
POLYITAN 1 09 Feb 10:43:29 10:47:43 70° 257° (WSW) 10:51:56 437.675
QB50P2 09 Feb 10:44:11 10:48:24 67° 258° (WSW) 10:52:38 145.880/145.840
GONETS M04 09 Feb 10:48:19 10:55:44 31° 295° (WNW) 11:03:14
BUGSAT 1 09 Feb 10:50:15 10:54:26 68° 74° (ENE) 10:58:36 437.445
50 SAT 09 Feb 10:51:03 10:54:24 29° 96° (E) 10:57:45 437.505
JAS-2 09 Feb 10:54:03 10:58:13 16° 54° (NE) 11:02:11 435.910
ZACube-1 09 Feb 11:02:54 11:05:38 17° 297° (WNW) 11:08:23 437.345
CUSAT 1 09 Feb 11:04:02 11:07:27 15° 53° (NE) 11:10:26 437.405
ANTELSAT 09 Feb 11:11:00 11:12:07 11° 272° (W) 11:13:12 437.575/2403.000
VELOX 1 09 Feb 11:11:28 11:15:40 40° 98° (E) 11:19:49 145.980
FUNcube-1 09 Feb 11:12:42 11:15:01 15° 298° (WNW) 11:17:20 145.935
POPSAT HIP 1 09 Feb 11:14:38 11:18:29 33° 263° (W) 11:22:21 437.405
NANOSAT C BR1 09 Feb 11:19:55 11:23:40 30° 264° (W) 11:27:25 145.865
DUCHIFAT 1 09 Feb 11:21:40 11:25:24 30° 264° (W) 11:29:09 145.980
HUMSAT D 09 Feb 11:27:02 11:30:33 27° 292° (WNW) 11:34:05 437.325/437.525
QB50P1 09 Feb 11:27:48 11:31:18 25° 265° (W) 11:34:48 145.935-145.965
AISAT 09 Feb 11:27:53 11:32:17 63° 101° (E) 11:36:39 437.250
DANDE 09 Feb 11:30:23 11:35:15 18° 53° (NE) 11:39:29 436.750
PCSat 09 Feb 11:31:37 11:37:01 74° 303° (WNW) 11:42:30 145.827
UKube-1 09 Feb 11:44:34 11:48:55 82° 103° (ESE) 11:53:14 .
ESTCUBE 1 09 Feb 11:46:58 11:51:33 77° 285° (WNW) 11:56:04 437.505/2401.250
CUBEBUG 1 09 Feb 11:49:36 11:54:02 87° 109° (ESE) 11:58:22 437.445
AIST 1 09 Feb 11:49:43 11:53:11 22° 289° (WNW) 11:56:41
RS-15 09 Feb 11:52:52 12:03:57 75° 120° (ESE) 12:15:41 29.354- 29.394
SPROUT 09 Feb 11:55:11 11:59:10 36° 97° (E) 12:03:06 437.525
DX 1 09 Feb 11:55:26 11:59:46 66° 287° (WNW) 12:04:04 434.975-435.025
AO-85 09 Feb 11:59:01 12:04:02 36° 317° (NW) 12:09:06 145.980
TISAT 1 09 Feb 12:07:27 12:10:26 19° 93° (E) 12:13:23 437.305
SO-50 09 Feb 12:07:48 12:11:35 22° 36° (NE) 12:15:17 436.795
Oscar 19 09 Feb 12:14:04 12:19:09 59° 71° (ENE) 12:24:15 437.125/150
50 SAT 09 Feb 12:25:18 12:28:19 23° 293° (WNW) 12:31:20 437.505
BUGSAT 1 09 Feb 12:28:43 12:30:16 12° 271° (W) 12:31:49 437.445
AO-7 09 Feb 12:32:18 12:37:30 18° 44° (NE) 12:42:41 29.400- 29.500
JAS-2 09 Feb 12:34:39 12:42:15 70° 72° (ENE) 12:49:10 435.910
Cosmos 2499 09 Feb 12:37:57 12:43:01 16° 306° (NW) 12:48:08 435.465 / 435.565
Gurwin Techsat 1B 09 Feb 12:40:11 12:45:07 41° 67° (ENE) 12:50:05 435.225
CUSAT 1 09 Feb 12:44:51 12:51:09 89° 82° (E) 12:55:49 437.405
VELOX 1 09 Feb 12:48:28 12:51:55 23° 296° (WNW) 12:55:20 145.980
AISAT 09 Feb 13:05:41 13:08:18 16° 299° (WNW) 13:10:54 437.250
DANDE 09 Feb 13:12:16 13:19:44 86° 82° (E) 13:25:22 436.750
PCSat 09 Feb 13:17:47 13:21:23 18° 325° (NW) 13:25:00 145.827
ITAMSAT 1 09 Feb 13:21:36 13:26:36 51° 70° (ENE) 13:31:39 435.822/435.867
UKube-1 09 Feb 13:22:40 13:24:21 12° 302° (WNW) 13:26:01 .
SWISSCUBE 09 Feb 13:25:13 13:29:18 27° 95° (E) 13:33:21 437.505
ESTCUBE 1 09 Feb 13:26:59 13:27:33 10° 303° (WNW) 13:28:07 437.505/2401.250
CUBEBUG 1 09 Feb 13:28:09 13:29:38 12° 302° (WNW) 13:31:07 437.445
SPROUT 09 Feb 13:31:36 13:34:57 23° 295° (WNW) 13:38:18 437.525
YUBILEINY 09 Feb 13:32:12 13:40:37 45° 71° (ENE) 13:48:57 435.215
Cosmos 2504 09 Feb 13:36:18 13:38:53 11° 47° (NE) 13:41:25 435.465 / 435.565
TISAT 1 09 Feb 13:42:22 13:46:18 41° 290° (WNW) 13:50:13 437.305
Cosmos 2491 09 Feb 13:42:27 13:48:45 23° 78° (ENE) 13:55:01 435.465 / 435.565
AO-85 09 Feb 13:43:43 13:46:11 13° 340° (NNW) 13:48:37 145.980
M-CUBED/EXP-1 PRIME 09 Feb 13:44:47 13:46:08 12° 58° (ENE) 13:47:28 437.505
SO-50 09 Feb 13:47:47 13:52:39 76° 236° (SW) 13:57:18 436.795
AUBIESAT-1 09 Feb 13:54:50 13:56:26 13° 58° (ENE) 13:57:59 437.475
Oscar 19 09 Feb 13:55:11 13:58:52 19° 269° (W) 14:02:33 437.125/150
ITUPSAT 1 09 Feb 14:01:19 14:06:03 53° 100° (E) 14:10:45 437.325
RS-15 09 Feb 14:06:43 14:17:26 44° 327° (NNW) 14:28:45 29.354- 29.394
BEESAT 09 Feb 14:10:08 14:14:56 66° 102° (ESE) 14:19:41 436.000
AO-7 09 Feb 14:20:31 14:28:46 66° 65° (ENE) 14:37:02 29.400- 29.500
Gurwin Techsat 1B 09 Feb 14:20:35 14:25:10 29° 265° (W) 14:29:48 435.225
JAS-2 09 Feb 14:21:30 14:27:39 26° 268° (W) 14:33:28 435.910
KKS-1 09 Feb 14:23:34 14:25:40 13° 89° (E) 14:27:46 437.445
CUSAT 1 09 Feb 14:29:45 14:31:56 12° 285° (WNW) 14:33:56 437.405
HORYU 2 09 Feb 14:49:41 14:53:33 31° 67° (ENE) 14:57:26 437.375
DANDE 09 Feb 14:57:04 15:01:17 17° 284° (WNW) 15:04:59 436.750
ITAMSAT 1 09 Feb 15:02:21 15:06:22 22° 267° (W) 15:10:25 435.822/435.867
SWISSCUBE 09 Feb 15:02:45 15:07:11 38° 292° (WNW) 15:11:36 437.505
M-CUBED/EXP-1 PRIME 09 Feb 15:16:52 15:20:28 56° 254° (WSW) 15:23:52 437.505
Cosmos 2504 09 Feb 15:26:29 15:34:55 50° 73° (ENE) 15:42:48 435.465 / 435.565
AUBIESAT-1 09 Feb 15:27:10 15:30:43 51° 254° (WSW) 15:34:04 437.475
YUBILEINY 09 Feb 15:29:11 15:37:26 46° 273° (W) 15:45:38 435.215
Cosmos 2491 09 Feb 15:35:47 15:44:31 82° 279° (W) 15:53:18 435.465 / 435.565
ITUPSAT 1 09 Feb 15:39:59 15:43:31 21° 298° (WNW) 15:47:05 437.325
STARS 09 Feb 15:42:37 15:46:51 46° 99° (E) 15:51:03 437.465
MOZHAYETS 4 09 Feb 15:48:10 15:52:35 41° 98° (E) 15:56:57
BEESAT 09 Feb 15:49:09 15:52:14 17° 300° (WNW) 15:55:19 436.000
KKS-1 09 Feb 15:58:18 16:02:43 67° 287° (WNW) 16:07:06 437.445
AO-7 09 Feb 16:14:54 16:22:04 31° 265° (W) 16:29:17 29.400- 29.500
ISS 09 Feb 16:20:05 16:23:16 56° 146° (SE) 16:26:28 145.825
RS-15 09 Feb 16:24:04 16:33:58 30° 1° (N) 16:44:13 29.354- 29.394
HORYU 2 09 Feb 16:26:17 16:30:06 28° 264° (W) 16:33:57 437.375
CUBESAT XI-V 09 Feb 16:29:26 16:31:24 12° 88° (E) 16:33:20 437.345
O/OREOS (USA 219) 09 Feb 16:32:33 16:36:10 22° 53° (NE) 16:39:47 437.305
CUTE-I 09 Feb 16:35:38 16:40:21 33° 65° (ENE) 16:45:05 437.470
LilacSat-2 09 Feb 16:37:02 16:39:52 20° 66° (ENE) 16:42:42 437.200
BEESAT 3 09 Feb 16:43:34 16:46:55 26° 116° (ESE) 16:50:18 437.485
Cubesat XI-IV 09 Feb 16:48:53 16:53:52 42° 68° (ENE) 16:58:54 437.490
GOMX 1 09 Feb 17:01:40 17:05:06 18° 61° (ENE) 17:08:27 467.674
BEESAT 2 09 Feb 17:06:49 17:10:20 30° 117° (ESE) 17:13:54 435.950
AO-85 09 Feb 17:08:24 17:12:02 18° 29° (NNE) 17:15:30 145.980
HO-68 09 Feb 17:09:16 17:12:39 14° 46° (NE) 17:16:02 435.675
STARS 09 Feb 17:19:46 17:22:54 20° 297° (WNW) 17:26:01 437.465
Cosmos 2504 09 Feb 17:20:16 17:28:06 40° 275° (W) 17:35:27 435.465 / 435.565
MOZHAYETS 4 09 Feb 17:25:48 17:29:31 24° 295° (WNW) 17:33:15
BRITE-PL 09 Feb 17:29:16 17:34:48 53° 71° (ENE) 17:40:10 437.365/2234.400
Cosmos 2491 09 Feb 17:36:58 17:42:53 20° 303° (WNW) 17:48:51 435.465 / 435.565
ISS 09 Feb 17:56:50 17:59:51 35° 345° (NNW) 18:02:53 145.825
CUBESAT XI-V 09 Feb 18:04:38 18:09:22 78° 284° (WNW) 18:14:02 437.345
CUTE 1.7 + AOD 2 09 Feb 18:06:29 18:08:16 12° 60° (ENE) 18:10:02 437.475
LilacSat-2 09 Feb 18:10:32 18:14:01 33° 263° (W) 18:17:29 437.200
O/OREOS (USA 219) 09 Feb 18:11:24 18:15:50 48° 251° (WSW) 18:20:14 437.305
SEEDS 09 Feb 18:14:01 18:15:19 11° 59° (ENE) 18:16:38 437.485
CUTE-I 09 Feb 18:15:27 18:20:20 36° 263° (W) 18:25:16 437.470
DOVE 4 09 Feb 18:20:52 18:25:40 44° 71° (ENE) 18:30:15 437.250
BEESAT 3 09 Feb 18:20:54 18:24:35 34° 314° (NW) 18:28:16 437.485
Cubesat XI-IV 09 Feb 18:29:32 18:34:05 28° 266° (W) 18:38:39 437.490
AAUSAT CUBESAT 2 09 Feb 18:30:30 18:30:53 10° 59° (ENE) 18:31:17 437.432
PCSat 09 Feb 18:34:26 18:39:06 28° 43° (NE) 18:43:43 145.827
STRAND 1 09 Feb 18:36:11 18:40:44 30° 95° (E) 18:45:14 437.568
GOMX 1 09 Feb 18:37:15 18:42:40 75° 258° (WSW) 18:47:51 467.674
Cosmos 2499 09 Feb 18:37:54 18:41:27 13° 50° (NE) 18:44:55 435.465 / 435.565
RS-15 09 Feb 18:39:03 18:50:29 46° 34° (NE) 19:02:09 29.354- 29.394
BEESAT 2 09 Feb 18:44:35 18:48:12 31° 315° (NW) 18:51:52 435.950
AO-85 09 Feb 18:48:20 18:53:35 69° 52° (NE) 18:58:23 145.980
CANX-2 09 Feb 18:49:02 18:52:53 36° 69° (ENE) 18:56:46 2200.000
HO-68 09 Feb 18:51:56 18:58:55 59° 67° (ENE) 19:05:58 435.675
GONETS M04 09 Feb 18:57:14 19:05:16 37° 68° (ENE) 19:13:17
AIST 2 09 Feb 18:58:45 19:02:46 47° 120° (ESE) 19:06:48 435.215
BRITE-PL 09 Feb 19:08:52 19:13:29 25° 268° (W) 19:18:02 437.365/2234.400
CINEMA 3 09 Feb 19:17:58 19:22:29 56° 73° (ENE) 19:26:50 145.822/145.860
CUBEBUG 2 09 Feb 19:27:56 19:31:32 26° 67° (ENE) 19:35:04 437.445
UWE-3 09 Feb 19:29:51 19:33:00 21° 65° (ENE) 19:36:07 435.000/436.395/437.385
Oscar 11 09 Feb 19:31:06 19:34:15 20° 64° (ENE) 19:37:24 145.826/435.025
COMPASS 1 09 Feb 19:32:44 19:36:46 53° 73° (ENE) 19:40:50 437.405
ISS 09 Feb 19:34:03 19:36:53 26° 5° (N) 19:39:42 145.825
